| time (UTC) | temp F | wind direction | speed MPH | gust MPH | rain 1hr in | rain 24hr in | rain mn in | humidity % | barometer mb |
| 20260905130132 | 88 | 289 | 1.0 | 3.0 | 0.00 | 0.00 | 0.00 | 50 | 1016.6 |
| 20260905125129 | 87 | 174 | 0.0 | 1.0 | 0.00 | 0.00 | 0.00 | 51 | 1016.8 |
| 20260905124128 | 88 | 224 | 1.0 | 1.0 | 0.00 | 0.00 | 0.00 | 51 | 1016.8 |
| 20260905123131 | 86 | 203 | 3.0 | 5.0 | 0.00 | 0.00 | 0.00 | 52 | 1017.0 |
| 20260905122132 | 87 | 266 | 3.0 | 7.0 | 0.00 | 0.00 | 0.00 | 52 | 1017.1 |
| 20260905121131 | 87 | 259 | 3.0 | 5.0 | 0.00 | 0.00 | 0.00 | 54 | 1017.3 |
| 20260905120130 | 86 | 56 | 2.0 | 3.0 | 0.00 | 0.00 | 0.00 | 57 | 1017.2 |
| 20260905115127 | 87 | 153 | 1.0 | 2.0 | 0.00 | 0.00 | 0.00 | 53 | 1017.3 |
| 20260905114128 | 86 | 275 | 1.0 | 3.0 | 0.00 | 0.00 | 0.00 | 56 | 1017.2 |
| 20260905113128 | 87 | 214 | 1.0 | 2.0 | 0.00 | 0.00 | 0.00 | 54 | 1017.3 |
| 20260905112127 | 86 | 69 | 2.0 | 2.0 | 0.00 | 0.00 | 0.00 | 59 | 1017.4 |
| 20260905111128 | 84 | 26 | 2.0 | 5.0 | 0.00 | 0.00 | 0.00 | 57 | 1017.3 |
| 20260905110129 | 84 | 69 | 1.0 | 2.0 | 0.00 | 0.00 | 0.00 | 59 | 1017.4 |
| 20260905105127 | 84 | 61 | 1.0 | 2.0 | 0.00 | 0.00 | 0.00 | 64 | 1017.4 |
| 20260905104129 | 84 | 58 | 0.0 | 2.0 | 0.00 | 0.00 | 0.00 | 61 | 1017.4 |
| 20260905103129 | 84 | 304 | 2.0 | 3.0 | 0.00 | 0.00 | 0.00 | 64 | 1017.6 |
| 20260905102131 | 84 | 355 | 3.0 | 3.0 | 0.00 | 0.00 | 0.00 | 66 | 1017.5 |
| 20260905101128 | 85 | 330 | 2.0 | 2.0 | 0.00 | 0.00 | 0.00 | 65 | 1017.5 |
| 20260905100128 | 84 | 292 | 1.0 | 2.0 | 0.00 | 0.00 | 0.00 | 66 | 1017.5 |
| 20260905095124 | 82 | 308 | 2.0 | 2.0 | 0.00 | 0.00 | 0.00 | 67 | 1017.5 |
| 20260905094218 | 82 | 312 | 1.0 | 2.0 | 0.00 | 0.00 | 0.00 | 69 | 1017.6 |
| 20260905094124 | 82 | 312 | 1.0 | 2.0 | 0.00 | 0.00 | 0.00 | 69 | 1017.6 |
| 20260905094000 | 82 | 312 | 2.0 | 3.0 | 0.00 | 0.00 | 0.00 | 70 | 1017.7 |
| 20260905093727 | 82 | 316 | 1.0 | 2.0 | 0.00 | 0.00 | 0.00 | 69 | 1017.7 |
| 20260905093122 | 83 | 330 | 3.0 | 4.0 | 0.00 | 0.00 | 0.00 | 69 | 1017.7 |
| 20260905092524 | 83 | 337 | 1.0 | 2.0 | 0.00 | 0.00 | 0.00 | 70 | 1017.6 |
| 20260905091323 | 84 | 277 | 0.0 | 0.0 | 0.00 | 0.00 | 0.00 | 66 | 1017.5 |
| 20260905090123 | 83 | 293 | 2.0 | 4.0 | 0.00 | 0.00 | 0.00 | 70 | 1017.6 |
| 20260905085527 | 82 | 58 | 2.0 | 2.0 | 0.00 | 0.00 | 0.00 | 71 | 1017.6 |
| 20260905084323 | 82 | 296 | 2.0 | 2.0 | 0.00 | 0.00 | 0.00 | 73 | 1017.4 |
| 20260905083724 | 82 | 64 | 0.0 | 2.0 | 0.00 | 0.00 | 0.00 | 72 | 1017.3 |
| 20260905083125 | 81 | 64 | 2.0 | 4.0 | 0.00 | 0.00 | 0.00 | 77 | 1017.2 |
| 20260905082524 | 83 | 61 | 2.0 | 3.0 | 0.00 | 0.00 | 0.00 | 75 | 1017.2 |
| 20260905081324 | 82 | 48 | 1.0 | 3.0 | 0.00 | 0.00 | 0.00 | 75 | 1017.1 |
| 20260905080123 | 81 | 79 | 2.0 | 2.0 | 0.00 | 0.00 | 0.00 | 76 | 1017.0 |
| 20260905075525 | 80 | 300 | 2.0 | 3.0 | 0.00 | 0.00 | 0.00 | 77 | 1017.1 |
| 20260905074326 | 82 | 48 | 0.0 | 0.0 | 0.00 | 0.00 | 0.00 | 71 | 1016.9 |
| 20260905073724 | 81 | 48 | 0.0 | 0.0 | 0.00 | 0.00 | 0.00 | 72 | 1016.9 |
| 20260905073122 | 81 | 58 | 0.0 | 2.0 | 0.00 | 0.00 | 0.00 | 71 | 1016.9 |
| 20260905072526 | 79 | 61 | 0.0 | 1.0 | 0.00 | 0.00 | 0.00 | 75 | 1016.7 |
| 20260905071926 | 78 | 57 | 2.0 | 4.0 | 0.00 | 0.00 | 0.00 | 77 | 1016.7 |
| 20260905071324 | 78 | 78 | 2.0 | 3.0 | 0.00 | 0.00 | 0.00 | 78 | 1016.8 |
| 20260905070727 | 78 | 74 | 1.0 | 3.0 | 0.00 | 0.00 | 0.00 | 78 | 1016.9 |
| 20260905070126 | 77 | 82 | 2.0 | 3.0 | 0.00 | 0.00 | 0.00 | 80 | 1016.8 |
| 20260905065526 | 77 | 350 | 2.0 | 3.0 | 0.00 | 0.00 | 0.00 | 80 | 1016.8 |
| 20260905064324 | 76 | 62 | 1.0 | 3.0 | 0.00 | 0.00 | 0.00 | 80 | 1016.8 |
| 20260905063727 | 75 | 5 | 2.0 | 4.0 | 0.00 | 0.00 | 0.00 | 82 | 1016.7 |
| 20260905063123 | 75 | 46 | 2.0 | 2.0 | 0.00 | 0.00 | 0.00 | 82 | 1016.8 |
| 20260905062522 | 76 | 33 | 2.0 | 3.0 | 0.00 | 0.00 | 0.00 | 81 | 1016.6 |
| 20260905061325 | 75 | 56 | 1.0 | 2.0 | 0.00 | 0.00 | 0.00 | 80 | 1016.6 |
| 20260905060726 | 74 | 350 | 2.0 | 4.0 | 0.00 | 0.00 | 0.00 | 82 | 1016.5 |
| 20260905060123 | 73 | 303 | 2.0 | 3.0 | 0.00 | 0.00 | 0.00 | 85 | 1016.5 |
| 20260905055523 | 72 | 301 | 2.0 | 2.0 | 0.00 | 0.00 | 0.00 | 87 | 1016.7 |
| 20260905054925 | 73 | 307 | 3.0 | 3.0 | 0.00 | 0.00 | 0.00 | 87 | 1016.7 |
| 20260905054322 | 73 | 313 | 0.0 | 2.0 | 0.00 | 0.00 | 0.00 | 86 | 1016.6 |
| 20260905053723 | 72 | 314 | 2.0 | 2.0 | 0.00 | 0.00 | 0.00 | 87 | 1016.5 |
| 20260905053122 | 73 | 315 | 1.0 | 2.0 | 0.00 | 0.00 | 0.00 | 86 | 1016.3 |
| 20260905052526 | 72 | 315 | 0.0 | 0.0 | 0.00 | 0.00 | 0.00 | 86 | 1016.2 |
| 20260905051322 | 71 | 66 | 2.0 | 3.0 | 0.00 | 0.00 | 0.00 | 90 | 1016.1 |
| 20260905050726 | 71 | 70 | 2.0 | 5.0 | 0.00 | 0.00 | 0.00 | 90 | 1016.2 |
| 20260905050126 | 71 | 76 | 1.0 | 3.0 | 0.00 | 0.00 | 0.00 | 91 | 1016.1 |
| 20260905045524 | 70 | 332 | 1.0 | 2.0 | 0.00 | 0.00 | 0.00 | 91 | 1016.2 |
| 20260905044322 | 70 | 67 | 2.0 | 3.0 | 0.00 | 0.00 | 0.00 | 92 | 1016.3 |
| 20260905043722 | 70 | 65 | 2.0 | 4.0 | 0.00 | 0.00 | 0.00 | 92 | 1016.1 |
| 20260905043123 | 70 | 48 | 1.0 | 2.0 | 0.00 | 0.00 | 0.00 | 94 | 1016.2 |
| 20260905042525 | 70 | 71 | 0.0 | 0.0 | 0.00 | 0.00 | 0.00 | 94 | 1016.3 |
| 20260905041924 | 70 | 71 | 1.0 | 2.0 | 0.00 | 0.00 | 0.00 | 94 | 1016.4 |
| 20260905041325 | 70 | 71 | 0.0 | 1.0 | 0.00 | 0.00 | 0.00 | 94 | 1016.4 |
| 20260905040122 | 70 | 71 | 0.0 | 2.0 | 0.00 | 0.00 | 0.00 | 92 | 1016.4 |
| 20260905035522 | 70 | 71 | 0.0 | 1.0 | 0.00 | 0.00 | 0.00 | 92 | 1016.3 |
| 20260905034323 | 70 | 55 | 1.0 | 2.0 | 0.00 | 0.00 | 0.00 | 92 | 1016.4 |
| 20260905033725 | 70 | 54 | 1.0 | 2.0 | 0.00 | 0.00 | 0.00 | 92 | 1016.4 |
| 20260905033124 | 70 | 55 | 0.0 | 2.0 | 0.00 | 0.00 | 0.00 | 92 | 1016.5 |
| 20260905032522 | 70 | 55 | 1.0 | 2.0 | 0.00 | 0.00 | 0.00 | 92 | 1016.5 |
| 20260905031322 | 70 | 60 | 0.0 | 0.0 | 0.00 | 0.00 | 0.00 | 92 | 1016.5 |
| 20260905030124 | 71 | 57 | 0.0 | 2.0 | 0.00 | 0.00 | 0.00 | 91 | 1016.4 |
| 20260905025525 | 71 | 60 | 2.0 | 3.0 | 0.00 | 0.00 | 0.00 | 91 | 1016.3 |
| 20260905025004 | 71 | 60 | 1.0 | 2.0 | 0.00 | 0.00 | 0.00 | 90 | 1016.3 |
| 20260905024925 | 71 | 60 | 1.0 | 2.0 | 0.00 | 0.00 | 0.00 | 90 | 1016.3 |
| 20260905024323 | 71 | 293 | 1.0 | 2.0 | 0.00 | 0.00 | 0.00 | 90 | 1016.2 |
| 20260905023722 | 71 | 47 | 1.0 | 2.0 | 0.00 | 0.00 | 0.00 | 90 | 1016.3 |
| 20260905023154 | 71 | 67 | 1.0 | 2.0 | 0.00 | 0.00 | 0.00 | 88 | 1016.3 |
| 20260905022526 | 71 | 64 | 0.0 | 2.0 | 0.00 | 0.00 | 0.00 | 88 | 1016.3 |
| 20260905021322 | 72 | 65 | 1.0 | 2.0 | 0.00 | 0.00 | 0.00 | 87 | 1016.3 |
| 20260905020726 | 72 | 65 | 1.0 | 2.0 | 0.00 | 0.00 | 0.00 | 87 | 1016.3 |
| 20260905020123 | 72 | 66 | 1.0 | 3.0 | 0.00 | 0.00 | 0.00 | 86 | 1016.2 |
| 20260905015526 | 72 | 66 | 1.0 | 2.0 | 0.00 | 0.00 | 0.00 | 86 | 1016.2 |
| 20260905014326 | 73 | 60 | 3.0 | 4.0 | 0.00 | 0.00 | 0.00 | 85 | 1016.4 |
| 20260905013726 | 73 | 67 | 3.0 | 4.0 | 0.00 | 0.00 | 0.00 | 83 | 1016.3 |
| 20260905013125 | 73 | 63 | 3.0 | 5.0 | 0.00 | 0.00 | 0.00 | 83 | 1016.4 |
| 20260905012526 | 73 | 63 | 2.0 | 3.0 | 0.00 | 0.00 | 0.00 | 83 | 1016.6 |
| 20260905011923 | 73 | 71 | 3.0 | 4.0 | 0.00 | 0.00 | 0.00 | 83 | 1016.6 |
| 20260905011324 | 73 | 61 | 2.0 | 4.0 | 0.00 | 0.00 | 0.00 | 83 | 1016.6 |
| 20260905010125 | 73 | 61 | 2.0 | 3.0 | 0.00 | 0.00 | 0.00 | 85 | 1016.5 |
| 20260905005523 | 73 | 81 | 2.0 | 2.0 | 0.00 | 0.00 | 0.00 | 86 | 1016.5 |
| 20260905004323 | 73 | 288 | 0.0 | 0.0 | 0.00 | 0.00 | 0.00 | 87 | 1016.6 |
| 20260905003723 | 73 | 288 | 1.0 | 2.0 | 0.00 | 0.00 | 0.00 | 87 | 1016.7 |
| 20260905003125 | 73 | 288 | 0.0 | 0.0 | 0.00 | 0.00 | 0.00 | 87 | 1016.7 |
| 20260905002525 | 73 | 288 | 0.0 | 0.0 | 0.00 | 0.00 | 0.00 | 88 | 1016.6 |
| 20260905001324 | 73 | 288 | 0.0 | 0.0 | 0.00 | 0.00 | 0.00 | 87 | 1016.8 |
| 20260905000726 | 73 | 288 | 0.0 | 0.0 | 0.00 | 0.00 | 0.00 | 87 | 1016.8 |
| 20260905000126 | 73 | 288 | 0.0 | 0.0 | 0.00 | 0.00 | 0.00 | 87 | 1016.8 |
| 20260904235526 | 73 | 288 | 0.0 | 0.0 | 0.00 | 0.00 | 0.00 | 87 | 1016.9 |
| 20260904234927 | 73 | 288 | 0.0 | 0.0 | 0.00 | 0.00 | 0.00 | 87 | 1017.0 |
| 20260904234323 | 73 | 289 | 0.0 | 0.0 | 0.00 | 0.00 | 0.00 | 88 | 1017.1 |
| 20260904233724 | 73 | 289 | 2.0 | 2.0 | 0.00 | 0.00 | 0.00 | 88 | 1017.1 |
| 20260904233124 | 75 | 79 | 0.0 | 1.0 | 0.00 | 0.00 | 0.00 | 86 | 1017.2 |
| 20260904232524 | 75 | 79 | 0.0 | 0.0 | 0.00 | 0.00 | 0.00 | 85 | 1017.2 |
| 20260904231926 | 75 | 79 | 0.0 | 0.0 | 0.00 | 0.00 | 0.00 | 85 | 1017.2 |
| 20260904231324 | 76 | 79 | 0.0 | 0.0 | 0.00 | 0.00 | 0.00 | 83 | 1017.3 |
| 20260904230123 | 75 | 79 | 2.0 | 2.0 | 0.00 | 0.00 | 0.00 | 85 | 1017.3 |
| 20260904225522 | 75 | 343 | 2.0 | 2.0 | 0.00 | 0.00 | 0.00 | 85 | 1017.4 |
| 20260904224924 | 75 | 312 | 0.0 | 0.0 | 0.00 | 0.00 | 0.00 | 86 | 1017.3 |
| 20260904224325 | 74 | 312 | 0.0 | 0.0 | 0.00 | 0.00 | 0.00 | 86 | 1017.4 |
| 20260904223725 | 75 | 312 | 0.0 | 0.0 | 0.00 | 0.00 | 0.00 | 86 | 1017.5 |
| 20260904223123 | 75 | 312 | 0.0 | 0.0 | 0.00 | 0.00 | 0.00 | 85 | 1017.5 |
| 20260904222526 | 75 | 312 | 0.0 | 0.0 | 0.00 | 0.00 | 0.00 | 85 | 1017.4 |
| 20260904221925 | 75 | 312 | 0.0 | 0.0 | 0.00 | 0.00 | 0.00 | 85 | 1017.5 |
| 20260904221323 | 75 | 312 | 0.0 | 0.0 | 0.00 | 0.00 | 0.00 | 83 | 1017.4 |
| 20260904220125 | 75 | 312 | 0.0 | 0.0 | 0.00 | 0.00 | 0.00 | 83 | 1017.5 |
| 20260904215522 | 75 | 312 | 0.0 | 0.0 | 0.00 | 0.00 | 0.00 | 82 | 1017.6 |
| 20260904214924 | 75 | 312 | 0.0 | 0.0 | 0.00 | 0.00 | 0.00 | 83 | 1017.6 |
| 20260904214326 | 76 | 312 | 0.0 | 0.0 | 0.00 | 0.00 | 0.00 | 82 | 1017.6 |
| 20260904213722 | 76 | 312 | 0.0 | 0.0 | 0.00 | 0.00 | 0.00 | 81 | 1017.7 |
| 20260904213123 | 76 | 312 | 0.0 | 0.0 | 0.00 | 0.00 | 0.00 | 81 | 1017.7 |
| 20260904212522 | 77 | 312 | 0.0 | 0.0 | 0.00 | 0.00 | 0.00 | 80 | 1017.7 |
| 20260904211322 | 77 | 312 | 0.0 | 0.0 | 0.00 | 0.00 | 0.00 | 78 | 1017.6 |
| 20260904210125 | 77 | 312 | 0.0 | 0.0 | 0.00 | 0.00 | 0.00 | 78 | 1017.8 |
| 20260904205522 | 77 | 312 | 0.0 | 1.0 | 0.00 | 0.00 | 0.00 | 77 | 1017.8 |
| 20260904204923 | 77 | 312 | 0.0 | 0.0 | 0.00 | 0.00 | 0.00 | 77 | 1017.8 |
| 20260904204326 | 77 | 312 | 0.0 | 0.0 | 0.00 | 0.00 | 0.00 | 78 | 1017.9 |
| 20260904203724 | 78 | 302 | 1.0 | 2.0 | 0.00 | 0.00 | 0.00 | 76 | 1017.9 |
| 20260904203123 | 77 | 302 | 0.0 | 1.0 | 0.00 | 0.00 | 0.00 | 78 | 1017.8 |
| 20260904202526 | 78 | 301 | 0.0 | 0.0 | 0.00 | 0.00 | 0.00 | 78 | 1017.9 |
| 20260904201922 | 78 | 304 | 0.0 | 0.0 | 0.00 | 0.00 | 0.00 | 78 | 1017.9 |
| 20260904201407 | 78 | 304 | 0.0 | 0.0 | 0.00 | 0.00 | 0.00 | 80 | 1017.8 |
| 20260904201327 | 78 | 304 | 0.0 | 0.0 | 0.00 | 0.00 | 0.00 | 80 | 1017.8 |
| 20260904200126 | 77 | 304 | 0.0 | 1.0 | 0.00 | 0.00 | 0.00 | 80 | 1017.9 |
| 20260904195523 | 78 | 304 | 0.0 | 0.0 | 0.00 | 0.00 | 0.00 | 80 | 1018.0 |
| 20260904194924 | 78 | 304 | 1.0 | 1.0 | 0.00 | 0.00 | 0.00 | 80 | 1017.8 |
| 20260904194325 | 78 | 311 | 3.0 | 3.0 | 0.00 | 0.00 | 0.00 | 80 | 1017.8 |
| 20260904193725 | 79 | 112 | 2.0 | 2.0 | 0.00 | 0.00 | 0.00 | 77 | 1017.8 |
| 20260904193124 | 79 | 113 | 0.0 | 0.0 | 0.00 | 0.00 | 0.00 | 75 | 1017.8 |
| 20260904192524 | 79 | 113 | 0.0 | 0.0 | 0.00 | 0.00 | 0.00 | 77 | 1017.7 |
| 20260904191922 | 79 | 113 | 0.0 | 0.0 | 0.00 | 0.00 | 0.00 | 77 | 1017.7 |
| 20260904191321 | 79 | 113 | 0.0 | 0.0 | 0.00 | 0.00 | 0.00 | 77 | 1017.7 |
| 20260904190122 | 79 | 113 | 0.0 | 0.0 | 0.00 | 0.00 | 0.00 | 76 | 1017.7 |
| 20260904185107 | 80 | 113 | 0.0 | 0.0 | 0.00 | 0.00 | 0.00 | 75 | 1017.6 |
| 20260904184303 | 80 | 113 | 0.0 | 0.0 | 0.00 | 0.00 | 0.00 | 75 | 1017.6 |
| 20260904183245 | 80 | 113 | 1.0 | 2.0 | 0.00 | 0.00 | 0.00 | 75 | 1017.5 |
| 20260904182646 | 80 | 113 | 2.0 | 3.0 | 0.00 | 0.00 | 0.00 | 73 | 1017.4 |
| 20260904181310 | 81 | 111 | 1.0 | 2.0 | 0.00 | 0.00 | 0.00 | 72 | 1017.3 |
| 20260904174809 | 82 | 103 | 1.0 | 3.0 | 0.00 | 0.00 | 0.00 | 66 | 1017.1 |
| 20260904174208 | 82 | 110 | 2.0 | 3.0 | 0.00 | 0.00 | 0.00 | 65 | 1017.1 |
| 20260904173609 | 83 | 117 | 1.0 | 2.0 | 0.00 | 0.00 | 0.00 | 63 | 1017.1 |
| 20260904173007 | 83 | 92 | 1.0 | 4.0 | 0.00 | 0.00 | 0.00 | 60 | 1017.2 |
| 20260904171807 | 84 | 75 | 1.0 | 3.0 | 0.00 | 0.00 | 0.00 | 57 | 1017.1 |
| 20260904171210 | 84 | 92 | 2.0 | 2.0 | 0.00 | 0.00 | 0.00 | 54 | 1017.2 |
| 20260904170607 | 85 | 94 | 3.0 | 4.0 | 0.00 | 0.00 | 0.00 | 52 | 1017.2 |
| 20260904164807 | 86 | 99 | 3.0 | 4.0 | 0.00 | 0.00 | 0.00 | 49 | 1017.4 |
| 20260904164207 | 86 | 79 | 2.0 | 3.0 | 0.00 | 0.00 | 0.00 | 52 | 1017.4 |
| 20260904163009 | 86 | 124 | 3.0 | 5.0 | 0.00 | 0.00 | 0.00 | 51 | 1017.4 |
| 20260904161208 | 86 | 82 | 2.0 | 3.0 | 0.00 | 0.00 | 0.00 | 54 | 1017.4 |
| 20260904160607 | 86 | 91 | 2.0 | 3.0 | 0.00 | 0.00 | 0.00 | 56 | 1017.4 |
| 20260904154807 | 86 | 43 | 2.0 | 3.0 | 0.00 | 0.00 | 0.00 | 56 | 1017.6 |
| 20260904154207 | 87 | 81 | 3.0 | 4.0 | 0.00 | 0.00 | 0.00 | 54 | 1017.6 |
| 20260904153610 | 86 | 86 | 3.0 | 5.0 | 0.00 | 0.00 | 0.00 | 54 | 1017.7 |
| 20260904153010 | 87 | 101 | 3.0 | 4.0 | 0.00 | 0.00 | 0.00 | 54 | 1017.7 |
| 20260904151807 | 87 | 104 | 3.0 | 5.0 | 0.00 | 0.00 | 0.00 | 57 | 1017.6 |
| 20260904151207 | 88 | 107 | 3.0 | 5.0 | 0.00 | 0.00 | 0.00 | 54 | 1017.7 |
| 20260904150608 | 87 | 69 | 3.0 | 4.0 | 0.00 | 0.00 | 0.00 | 54 | 1017.8 |
| 20260904144807 | 87 | 87 | 3.0 | 5.0 | 0.00 | 0.00 | 0.00 | 54 | 1017.8 |
| 20260904144210 | 87 | 69 | 3.0 | 5.0 | 0.00 | 0.00 | 0.00 | 53 | 1017.8 |
| 20260904143607 | 87 | 85 | 3.0 | 4.0 | 0.00 | 0.00 | 0.00 | 54 | 1017.9 |
| 20260904143007 | 87 | 97 | 4.0 | 5.0 | 0.00 | 0.00 | 0.00 | 56 | 1018.0 |
| 20260904141808 | 87 | 119 | 3.0 | 6.0 | 0.00 | 0.00 | 0.00 | 57 | 1018.0 |
| 20260904141207 | 88 | 123 | 4.0 | 8.0 | 0.00 | 0.00 | 0.00 | 57 | 1018.1 |
| 20260904140609 | 87 | 80 | 4.0 | 5.0 | 0.00 | 0.00 | 0.00 | 59 | 1018.3 |
| 20260904134807 | 88 | 96 | 3.0 | 4.0 | 0.00 | 0.00 | 0.00 | 54 | 1018.4 |
| 20260904134207 | 89 | 127 | 3.0 | 5.0 | 0.00 | 0.00 | 0.00 | 53 | 1018.4 |
| 20260904133608 | 89 | 133 | 2.0 | 4.0 | 0.00 | 0.00 | 0.00 | 53 | 1018.4 |
| 20260904133008 | 89 | 185 | 2.0 | 5.0 | 0.00 | 0.00 | 0.00 | 51 | 1018.4 |
| 20260904131810 | 90 | 28 | 1.0 | 2.0 | 0.00 | 0.00 | 0.00 | 48 | 1018.5 |
| 20260904131207 | 90 | 125 | 1.0 | 3.0 | 0.00 | 0.00 | 0.00 | 49 | 1018.7 |
| 20260904130607 | 90 | 143 | 3.0 | 5.0 | 0.00 | 0.00 | 0.00 | 48 | 1018.6 |